CW3319 Weather Reports


Display with metric or nautical units.
time (UTC)temp
F
wind
direction
speed
MPH
gust
MPH
rain 1hr
in
rain 24hr
in
rain mn
in
humidity
%
barometer
mb
20260510074932 44 355 0.0 0.0 0.00 0.00 0.00 65 1014.3
20260510073902 44 355 0.0 0.0 0.00 0.00 0.00 65 1014.2
20260510072901 44 355 0.0 0.0 0.00 0.00 0.00 66 1014.2
20260510071902 44 355 0.0 0.0 0.00 0.00 0.00 65 1014.2
20260510070901 44 355 0.0 0.0 0.00 0.00 0.00 63 1014.2
20260510065902 45 355 0.0 0.0 0.00 0.00 0.00 63 1014.2
20260510064932 45 355 0.0 0.0 0.00 0.00 0.00 63 1014.1
20260510063903 45 355 0.0 0.0 0.00 0.00 0.00 62 1014.1
20260510062901 45 355 0.0 0.0 0.00 0.00 0.00 59 1014.1
20260510061902 46 355 0.0 0.0 0.00 0.00 0.00 58 1014.0
20260510061002 46 355 0.0 0.0 0.00 0.00 0.00 55 1014.1
20260510055902 47 355 0.0 0.0 0.00 0.00 0.00 55 1014.1
20260510054902 47 355 0.0 0.0 0.00 0.00 0.00 52 1014.0
20260510053933 48 355 0.0 0.0 0.00 0.00 0.00 51 1013.9
20260510052932 49 355 0.0 0.0 0.00 0.00 0.00 50 1013.8
20260510051902 50 355 0.0 0.0 0.00 0.00 0.00 47 1013.7
20260510050902 50 355 0.0 0.0 0.00 0.00 0.00 47 1013.6
20260510045902 50 357 0.0 0.0 0.00 0.00 0.00 46 1013.6
20260510044902 51 355 0.0 0.0 0.00 0.00 0.00 47 1013.6
20260510044002 51 0 0.0 1.0 0.00 0.00 0.00 45 1013.5
20260510042902 51 327 1.0 3.0 0.00 0.00 0.00 45 1013.5
20260510041902 51 352 1.0 2.0 0.00 0.00 0.00 45 1013.4
20260510040902 52 5 0.0 0.0 0.00 0.00 0.00 47 1013.4
20260510035932 52 321 1.0 4.0 0.00 0.00 0.00 44 1013.2
20260510034902 52 350 1.0 2.0 0.00 0.00 0.00 45 1013.1
20260510033902 52 3 0.0 0.0 0.00 0.00 0.00 44 1013.0
20260510032902 52 335 1.0 2.0 0.00 0.00 0.00 44 1012.8
20260510031902 52 5 0.0 0.0 0.00 0.00 0.00 44 1012.6
20260510030903 52 352 0.0 1.0 0.00 0.00 0.00 44 1012.4
20260510025902 53 355 0.0 1.0 0.00 0.00 0.00 44 1012.3
20260510024902 53 324 0.0 1.0 0.00 0.00 0.00 44 1012.1
20260510023932 53 328 0.0 0.0 0.00 0.00 0.00 43 1011.8
20260510022902 54 268 0.0 0.0 0.00 0.00 0.00 41 1011.6
20260510021902 54 355 0.0 1.0 0.00 0.00 0.00 41 1011.3
20260510020902 54 275 0.0 0.0 0.00 0.00 0.00 42 1011.0
20260510015902 54 301 0.0 1.0 0.00 0.00 0.00 40 1010.8
20260510014932 54 273 1.0 2.0 0.00 0.00 0.00 41 1010.7
20260510013902 55 317 0.0 1.0 0.00 0.00 0.00 43 1010.5
20260510012902 55 329 1.0 2.0 0.00 0.00 0.00 41 1010.3
20260510011902 56 306 0.0 1.0 0.00 0.00 0.00 41 1010.1
20260510010902 56 295 0.0 1.0 0.00 0.00 0.00 37 1010.0
20260510005902 57 341 2.0 5.0 0.00 0.00 0.00 35 1009.9
20260510004902 57 312 2.0 5.0 0.00 0.00 0.00 35 1009.8
20260510003902 57 283 0.0 1.0 0.00 0.00 0.00 36 1009.7
20260510002902 58 307 1.0 2.0 0.00 0.00 0.00 37 1009.5
20260510001932 58 301 1.0 2.0 0.00 0.00 0.00 35 1009.5
20260510000902 58 2 2.0 4.0 0.00 0.00 0.00 35 1009.4
20260509235902 58 357 2.0 3.0 0.00 0.00 0.00 35 1009.2
20260509234902 59 318 2.0 5.0 0.00 0.00 0.00 37 1009.0
20260509233902 59 297 1.0 2.0 0.00 0.00 0.00 35 1008.9
20260509232902 59 315 2.0 3.0 0.00 0.00 0.00 36 1008.9
20260509231902 59 296 0.0 3.0 0.00 0.00 0.00 36 1008.8
20260509230902 59 358 3.0 7.0 0.00 0.00 0.00 34 1008.6
20260509225901 59 4 1.0 2.0 0.00 0.00 0.00 35 1008.6
20260509224902 59 346 3.0 9.0 0.00 0.00 0.00 33 1008.5
20260509223902 59 344 2.0 4.0 0.00 0.00 0.00 33 1008.3
20260509222932 59 306 4.0 6.0 0.00 0.00 0.00 33 1008.3
20260509221902 59 337 1.0 1.0 0.00 0.00 0.00 34 1008.2
20260509220902 60 284 3.0 5.0 0.00 0.00 0.00 34 1008.3
20260509215902 60 334 2.0 3.0 0.00 0.00 0.00 33 1008.1
20260509214932 60 299 3.0 7.0 0.00 0.00 0.00 33 1007.9
20260509213902 60 299 1.0 3.0 0.00 0.00 0.00 32 1007.9
20260509212901 60 289 2.0 4.0 0.00 0.00 0.00 32 1007.9
20260509211902 60 282 1.0 3.0 0.00 0.00 0.00 32 1007.7
20260509210932 60 341 3.0 5.0 0.00 0.00 0.00 34 1007.6
20260509205902 60 314 2.0 3.0 0.00 0.00 0.00 34 1007.5
20260509204932 60 279 2.0 3.0 0.00 0.00 0.00 36 1007.5
20260509203902 61 286 2.0 3.0 0.00 0.00 0.00 33 1007.3
20260509202902 61 298 2.0 5.0 0.00 0.00 0.00 34 1007.4
20260509201902 61 310 2.0 6.0 0.00 0.00 0.00 33 1007.3
20260509200901 61 327 3.0 6.0 0.00 0.00 0.00 34 1007.3
20260509195902 60 308 4.0 7.0 0.00 0.00 0.00 35 1007.2
20260509194933 61 335 3.0 4.0 0.00 0.00 0.00 34 1007.1
20260509193901 61 252 1.0 3.0 0.00 0.00 0.00 35 1006.9
20260509192903 60 276 1.0 2.0 0.00 0.00 0.00 33 1007.0
20260509191901 60 322 3.0 8.0 0.00 0.00 0.00 38 1006.7
20260509190902 60 269 3.0 4.0 0.00 0.00 0.00 38 1006.7
20260509185902 60 266 2.0 3.0 0.00 0.00 0.00 39 1006.7
20260509184903 60 302 1.0 3.0 0.00 0.00 0.00 37 1006.6
20260509183901 60 313 3.0 6.0 0.00 0.00 0.00 40 1006.4
20260509182902 60 345 3.0 5.0 0.00 0.00 0.00 39 1006.3
20260509181902 60 313 3.0 6.0 0.00 0.00 0.00 41 1006.3
20260509180902 60 314 2.0 4.0 0.00 0.00 0.00 39 1006.2
20260509175903 59 344 3.0 4.0 0.00 0.00 0.00 42 1006.2
20260509174901 58 305 1.0 5.0 0.00 0.00 0.00 45 1006.1
20260509173903 58 344 4.0 7.0 0.00 0.00 0.00 47 1006.1
20260509172901 58 279 3.0 5.0 0.00 0.00 0.00 49 1005.9
20260509171932 58 342 5.0 8.0 0.00 0.00 0.00 46 1006.0
20260509170902 56 331 2.0 3.0 0.00 0.00 0.00 50 1005.8
20260509165902 57 341 2.0 3.0 0.00 0.00 0.00 47 1005.7
20260509164933 58 299 2.0 2.0 0.00 0.00 0.00 44 1005.6
20260509163901 58 308 2.0 4.0 0.00 0.00 0.00 46 1005.5
20260509163002 59 341 4.0 8.0 0.00 0.00 0.00 44 1005.3
20260509161902 58 269 2.0 4.0 0.00 0.00 0.00 45 1005.1
20260509160902 57 309 3.0 4.0 0.00 0.00 0.00 45 1005.2
20260509155933 57 340 6.0 8.0 0.00 0.00 0.00 48 1005.0
20260509154901 57 289 3.0 6.0 0.00 0.00 0.00 51 1004.9
20260509153903 56 279 3.0 8.0 0.00 0.00 0.00 53 1004.8
20260509152902 56 311 2.0 3.0 0.00 0.00 0.00 57 1004.6
20260509151901 55 283 1.0 2.0 0.00 0.00 0.00 57 1004.5
20260509150902 54 317 2.0 4.0 0.00 0.00 0.00 59 1004.6
20260509145902 54 287 3.0 4.0 0.00 0.00 0.00 59 1004.3
20260509144901 54 305 2.0 4.0 0.00 0.00 0.00 62 1004.3
20260509143932 54 315 2.0 5.0 0.00 0.00 0.00 64 1004.3
20260509142903 53 331 6.0 11.0 0.00 0.00 0.00 65 1004.1
20260509141902 52 5 4.0 6.0 0.00 0.00 0.00 66 1003.9
20260509140902 52 283 4.0 11.0 0.00 0.00 0.00 70 1003.7
20260509135902 51 296 2.0 3.0 0.00 0.00 0.00 73 1003.6
20260509134902 51 333 3.0 6.0 0.00 0.00 0.00 76 1003.5
20260509133902 51 330 1.0 3.0 0.00 0.00 0.00 76 1003.4
20260509132902 51 313 2.0 4.0 0.00 0.00 0.00 75 1003.2
20260509131903 51 319 2.0 9.0 0.00 0.00 0.00 76 1003.0
20260509130902 51 310 3.0 4.0 0.00 0.00 0.00 76 1002.7
20260509125932 51 345 2.0 5.0 0.00 0.00 0.00 78 1002.6
20260509124902 51 330 2.0 4.0 0.00 0.00 0.00 78 1002.5
20260509123902 51 310 2.0 3.0 0.00 0.00 0.00 78 1002.4
20260509122902 51 328 4.0 11.0 0.00 0.00 0.00 79 1002.3
20260509121902 52 290 3.0 4.0 0.00 0.00 0.00 79 1002.1
20260509120902 52 285 1.0 2.0 0.00 0.00 0.00 79 1001.9
20260509115902 52 279 2.0 3.0 0.00 0.00 0.00 77 1001.8
20260509114902 52 302 1.0 2.0 0.00 0.00 0.00 75 1001.5
20260509113902 51 302 0.0 1.0 0.00 0.00 0.00 72 1001.4
20260509112932 51 300 0.0 0.0 0.00 0.00 0.00 71 1001.2
20260509111902 51 307 0.0 0.0 0.00 0.00 0.00 71 1001.0
20260509110902 51 286 0.0 0.0 0.00 0.00 0.00 70 1000.9
20260509105902 52 259 0.0 0.0 0.00 0.00 0.00 70 1000.8
20260509104902 52 252 0.0 0.0 0.00 0.00 0.00 68 1000.7
20260509103902 53 207 0.0 0.0 0.00 0.00 0.00 65 1000.7
20260509102902 53 311 0.0 0.0 0.00 0.00 0.00 61 1000.8
20260509101932 53 196 0.0 0.0 0.00 0.00 0.00 60 1000.4
20260509100902 53 274 0.0 0.0 0.00 0.00 0.00 58 1000.4
20260509095902 53 263 0.0 0.0 0.00 0.00 0.00 57 1000.6
20260509094902 53 339 0.0 0.0 0.00 0.00 0.00 55 1001.0
20260509093902 54 345 1.0 3.0 0.00 0.00 0.00 55 1001.0
20260509092902 54 307 1.0 1.0 0.00 0.00 0.00 53 1000.8
20260509091902 54 314 0.0 0.0 0.00 0.00 0.00 53 1000.7
20260509090902 54 334 1.0 2.0 0.00 0.00 0.00 52 1000.7
20260509085902 54 295 0.0 1.0 0.00 0.00 0.00 51 1000.8
20260509084902 54 304 1.0 2.0 0.00 0.00 0.00 51 1000.5
20260509083902 53 308 0.0 0.0 0.00 0.00 0.00 52 1000.3
20260509082933 52 301 0.0 1.0 0.00 0.00 0.00 55 1000.4
20260509081932 52 165 0.0 0.0 0.00 0.00 0.00 54 999.9
20260509080902 52 107 0.0 0.0 0.00 0.00 0.00 57 999.7
20260509075902 52 107 0.0 0.0 0.00 0.00 0.00 54 999.5